{"data":{"norad_id":44968,"intl_designator":"2020-001BG","name":"STARLINK-1090","alt_names":[],"object_type":"PAYLOAD","status":"ACTIVE","operator":null,"country":"US","launch_date":"2020-01-07","launch_site_code":"AFETR","launch_vehicle":null,"mission":null,"orbit_class":"UNKNOWN","rcs_meters":null,"size_class":null,"mass_kg":null,"dimensions":null,"purposes":["comms"],"wikipedia_slug":null,"has_3d_model":false,"image_url":null,"decayed_at":null,"tle_current":{"epoch":"2026-09-20T04:17:50.307072Z","epoch_age_seconds":41989,"freshness":"FRESH","line1":"1 44968U 20001BG  26263.17905448  .00068456  00000+0  72096-3 0  9996","line2":"2 44968  53.1412  97.0613 0000530 180.5707 179.5308 15.63668659370559","mean_motion":15.63668659,"eccentricity":5.3e-5,"inclination_deg":53.1412,"raan_deg":97.0613,"arg_perigee_deg":180.5707,"mean_anomaly_deg":179.5308,"bstar":0.00072096,"rev_number":37055,"period_min":92.091121204726,"perigee_km":376.71236716497,"apogee_km":377.42841914865,"semimajor_km":6755.2073931568,"source":"CELESTRAK","updated_at":"2026-09-20T09:00:38.222014Z"}}}